Location: Ottawa
(45.4170°N, 75.7000°W)
Time: 18:00:29
(UTC-04:00)

Envisat - Pass Details

Date: 05 May 2019
Orbit: 764 x 766 km, 98.2° (Epoch: 19 May)

Event Time Altitude Azimuth Distance (km) Brightness Sun altitude
Rises 20:45:50 0° 208° (SSW) 3,219 6.2 -5.7°
Reaches altitude 10° 20:48:51 10° 227° (SW) 2,298 5.7 -6.2°
Maximum altitude 20:52:15 18° 270° (W) 1,817 5.9 -6.7°
Drops below altitude 10° 20:55:40 10° 312° (NW) 2,310 7.2 -7.2°
Sets 20:58:44 0° 332° (NNW) 3,241 7.5 -7.7°
